Bydgoszcz Ignacy Jan Pade, Poland

6:45 AM CEST on July 22, 2018 (GMT +0200)
Szwederowo

Weather History for EPBY - April, 2018

Change the Weather History Date:

Tuesday, April 17, 2018

  Actual Average (WUND) Record (WUND)
Temperature  
Mean Temperature 55 °F -  
Max Temperature 64 °F - - (-1)
Min Temperature 42 °F - - (-1)
Degree Days  
Heating Degree Days 10    
Growing Degree Days 5 (Base 50)    
Moisture  
Dew Point 48 °F    
Average Humidity 77    
Maximum Humidity 100    
Minimum Humidity 52    
Precipitation  
Precipitation 0.00 in - - ()
Sea Level Pressure  
Sea Level Pressure 30.16 in    
Wind  
Wind Speed 11 mph ()    
Max Wind Speed 18 mph    
Max Gust Speed 25 mph    
Visibility 5.6 miles    
Events Rain    
Averages and records for this station are not official NWS values.
T = Trace of Precipitation, MM = Missing Value Source: Averaged Metar Reports

Daily Weather History Graph

Daily Weather History Graph

Search for Another Location

Airport or City:

Astronomy

Apr. 17, 2018 Rise Set
Actual Time 5:45 AM CEST 7:51 PM CEST
Civil Twilight 5:07 AM CEST 8:28 PM CEST
Nautical Twilight 4:21 AM CEST 9:15 PM CEST
Astronomical Twilight 3:27 AM CEST 10:10 PM CEST
Moon 6:53 AM CEST (4/17) 9:32 PM CEST (4/17)
Length of Visible Light 15h 21m
Length of Day
14h 06m
New Moon, 2% of the Moon is Illuminated
Apr 17
New Moon
Apr 22
First Quarter
Apr 30
Full
May 8
Last Quarter
May 15
New

Hourly Weather History & Observations

Time (CEST) Temp. Windchill Dew Point Humidity Pressure Visibility Wind Dir Wind Speed Gust Speed Precip Events Conditions
12:00 AM 55.4 °F - 53.6 °F 94% 29.89 in 1.6 mi NNW 12.7 mph - N/A Rain Light Rain
12:30 AM 55.4 °F - 53.6 °F 94% 29.89 in 3.1 mi North 10.4 mph - N/A Rain Light Rain
1:30 AM 53.6 °F - 53.6 °F 100% 29.92 in 3.7 mi NW 11.5 mph - N/A Rain Light Rain
3:00 AM 51.8 °F - 50.0 °F 94% 29.95 in 5.6 mi NW 15.0 mph - N/A   Overcast
3:30 AM 51.8 °F - 50.0 °F 94% 29.98 in 4.3 mi NNW 15.0 mph - N/A Rain Light Rain
4:00 AM 50.0 °F - 48.2 °F 94% 29.98 in 4.3 mi NNW 12.7 mph - N/A Rain Light Rain
4:30 AM 50.0 °F - 48.2 °F 94% 30.01 in 5.6 mi NNW 11.5 mph - N/A   Mostly Cloudy
5:00 AM 50.0 °F - 48.2 °F 94% 30.01 in 5.6 mi NNW 10.4 mph - N/A   Mostly Cloudy
5:30 AM 50.0 °F - 48.2 °F 94% 30.04 in 5.6 mi WNW 13.8 mph - N/A   Mostly Cloudy
7:00 AM 50.0 °F - 46.4 °F 87% 30.06 in 6.2 mi NW 13.8 mph - N/A   Mostly Cloudy
7:30 AM 50.0 °F - 46.4 °F 87% 30.09 in 6.2 mi NW 9.2 mph - N/A   Partly Cloudy
8:00 AM 50.0 °F - 48.2 °F 94% 30.09 in - NW 11.5 mph - N/A   Clear
8:30 AM 50.0 °F - 46.4 °F 87% 30.12 in - NW 11.5 mph - N/A   Clear
9:00 AM 51.8 °F - 48.2 °F 88% 30.15 in - NW 12.7 mph - N/A   Clear
9:30 AM 53.6 °F - 48.2 °F 82% 30.15 in 6.2 mi NW 16.1 mph - N/A   Partly Cloudy
10:00 AM 53.6 °F - 48.2 °F 82% 30.18 in 6.2 mi NW 18.4 mph - N/A   Mostly Cloudy
11:00 AM 57.2 °F - 50.0 °F 77% 30.18 in 6.2 mi NW 12.7 mph - N/A   Partly Cloudy
12:00 PM 59.0 °F - 48.2 °F 67% 30.21 in 6.2 mi NW 12.7 mph 25.3 mph N/A   Partly Cloudy
1:00 PM 62.6 °F - 50.0 °F 63% 30.21 in 6.2 mi NW 15.0 mph - N/A   Mostly Cloudy
1:30 PM 64.4 °F - 48.2 °F 56% 30.21 in 6.2 mi NW 17.3 mph - N/A   Scattered Clouds
2:00 PM 62.6 °F - 46.4 °F 55% 30.21 in 6.2 mi NW 17.3 mph - N/A   Scattered Clouds
2:30 PM 64.4 °F - 48.2 °F 56% 30.21 in 6.2 mi NW 16.1 mph - N/A   Partly Cloudy
3:30 PM 64.4 °F - 46.4 °F 52% 30.24 in 6.2 mi NW 15.0 mph - N/A   Scattered Clouds
4:00 PM 62.6 °F - 46.4 °F 55% 30.24 in 6.2 mi WNW 16.1 mph - N/A   Partly Cloudy
4:30 PM 62.6 °F - 46.4 °F 55% 30.24 in 6.2 mi NW 12.7 mph - N/A   Partly Cloudy
5:00 PM 62.6 °F - 46.4 °F 55% 30.24 in 6.2 mi NW 15.0 mph - N/A   Scattered Clouds
5:30 PM 62.6 °F - 46.4 °F 55% 30.24 in 6.2 mi NW 13.8 mph - N/A   Partly Cloudy
6:30 PM 60.8 °F - 46.4 °F 59% 30.27 in 6.2 mi NW 12.7 mph - N/A   Scattered Clouds
7:00 PM 60.8 °F - 46.4 °F 59% 30.27 in 6.2 mi NNW 11.5 mph - N/A   Partly Cloudy
7:30 PM 59.0 °F - 48.2 °F 67% 30.27 in - NNW 6.9 mph - N/A   Clear
8:00 PM 57.2 °F - 48.2 °F 72% 30.30 in - North 5.8 mph - N/A   Clear
8:30 PM 55.4 °F - 46.4 °F 72% 30.30 in - NNW 5.8 mph - N/A   Clear
9:00 PM 51.8 °F - 46.4 °F 82% 30.33 in - WNW 3.5 mph - N/A   Clear
10:30 PM 48.2 °F - 44.6 °F 87% 30.33 in - Variable 2.3 mph - N/A   Clear
11:00 PM 46.4 °F 45.2 °F 42.8 °F 87% 30.36 in - SW 3.5 mph - N/A   Clear
11:30 PM 42.8 °F - 41.0 °F 93% 30.36 in - SW 2.3 mph - N/A   Clear